Tracking 28799 objects as of 18-Apr-2024
HD Live streaming from Space Station
objects crossing your sky now

NOAA 16 DEB

Track NOAA 16 DEB now!
10-day predictions


NORAD ID: 41297
Int'l Code: 2000-055GZ
Perigee: 827.0 km
Apogee: 934.3 km
Inclination: 99.0 °
Period: 102.4 minutes
Semi major axis: 7251 km
RCS: Unknown
Launch date: September 21, 2000
Source: United States (US)
Launch site: AIR FORCE WESTERN TEST RANGE (AFWTR)

Note: This is SATELLITE DEBRIS
Your satellite tracking list
Your tracking list is empty




NASA's NSSDC Master Catalog

Two Line Element Set (TLE):
1 41297U 00055GZ  24106.40378312  .00007035  00000-0  42186-2 0  9992
2 41297  98.9696 160.5594 0074029 130.1459 230.6224 14.05874068424166
Source of the keplerian elements: AFSPC